Theta_e
317 322 323 323 324 325 325 324 325 322 317 316 314 311 309 307 304 301 297 294 294 292 290 289 288 288 287 287 287 287 286 286 284 284 286 287 286 285 285 285 286 284 284
308 311 313 316 315 320 323 325 320 317 313 313 310 308 307 304 301 300 296 296 295 291 290 289 287 288 286 287 286 286 286 286 285 283 284 285 285 284 283 283 285 286 283
302 303 304 306 309 311 314 311 309 307 306 304 304 304 302 301 298 297 298 295 292 293 290 289 288 287 285 286 285 285 286 286 285 282 282 285 285 284 281 281 282 282 284
301 301 300 301 305 307 307 307 304 303 302 301 301 301 300 297 297 295 295 293 291 290 290 289 288 287 286 285 285 285 285 283 283 282 282 283 283 282 279 279 278 279 280
299 299 299 298 300 300 299 298 298 297 297 297 295 295 295 294 295 293 292 291 290 288 288 288 287 286 287 288 286 285 285 283 282 282 282 282 282 281 280 280 279 279 279
297 296 297 296 294 293 291 291 293 292 292 291 291 290 291 293 293 293 291 289 288 287 287 286 286 285 288 289 289 289 287 284 283 282 282 283 283 282 280 279 279 277 276
292 291 291 290 290 289 288 287 287 288 288 288 288 287 288 289 292 292 290 288 288 287 286 285 284 284 285 286 289 290 288 289 288 285 283 283 282 282 281 278 279 279 278
289 289 288 288 287 286 285 285 285 287 287 286 286 286 287 286 292 292 289 287 287 286 286 286 285 284 284 285 285 285 285 286 286 286 285 284 284 283 282 281 280 279 279
287 287 287 286 283 284 281 282 286 285 284 284 285 285 285 285 291 291 288 285 285 284 284 285 284 283 285 287 284 283 283 284 287 288 288 287 287 287 284 281 278 276 274
286 287 286 285 281 281 281 283 284 284 284 283 284 285 285 285 291 291 287 286 285 283 283 284 284 284 286 287 283 282 281 282 283 283 284 286 286 284 287 283 278 273 272
284 283 281 281 280 280 279 278 278 282 283 283 283 284 285 285 287 290 289 285 285 283 283 283 283 287 287 287 287 283 283 284 285 283 282 281 280 280 280 280 280 278 273
280 280 278 276 279 278 275 275 277 283 283 283 283 282 282 283 286 290 290 287 286 284 283 283 283 287 287 288 287 286 287 285 283 283 281 280 279 279 280 280 280 278 279
278 277 275 276 277 276 274 273 275 276 278 281 281 281 280 281 283 288 289 289 287 284 284 284 285 286 287 287 288 288 285 285 283 281 280 281 280 281 280 280 280 280 278
276 276 275 274 274 274 276 276 274 274 274 276 277 280 280 280 281 283 286 287 286 286 285 284 285 285 286 286 284 286 285 285 284 282 282 282 280 278 278 278 277 276 274
276 275 275 274 272 273 275 274 275 274 276 273 273 274 274 274 281 284 286 286 286 286 283 282 283 283 282 283 283 283 284 284 283 283 282 280 279 278 277 276 275 273 272
275 275 274 273 272 273 272 273 282 283 285 285 286 280 275 283 285 285 285 287 288 288 283 282 281 281 281 281 281 281 282 282 282 282 282 280 279 277 277 275 274 273 272
273 272 271 272 272 270 270 270 271 276 282 284 284 284 285 286 285 286 286 286 286 287 283 282 281 281 281 281 281 281 280 281 282 281 280 279 278 277 276 275 274 273 272
268 269 269 267 267 267 267 267 266 266 267 269 277 282 283 285 285 286 286 285 283 283 283 282 282 282 282 281 281 281 281 281 280 279 278 278 277 276 274 274 273 273 271
269 267 266 266 266 266 266 266 266 266 266 267 266 275 274 282 283 284 285 282 281 281 281 282 282 283 282 281 281 281 281 280 279 278 277 277 276 275 274 273 273 272 272
265 268 265 264 265 265 266 266 267 268 269 270 268 270 274 276 276 278 280 281 281 281 282 282 283 283 282 282 282 281 281 280 279 278 277 276 275 274 273 272 272 271 270
259 260 262 262 261 259 259 260 261 260 261 261 263 266 278 274 274 274 273 274 279 280 281 281 281 282 282 282 282 281 280 280 278 275 275 274 274 272 272 273 271 271 271
257 257 257 257 258 260 258 258 258 258 257 258 260 261 273 261 261 264 268 272 272 274 275 276 277 277 277 278 278 277 276 276 275 275 274 273 273 272 271 270 270 270 269
257 257 257 256 256 257 256 255 255 256 256 255 257 259 258 257 258 260 262 262 264 267 268 268 269 268 269 271 272 273 273 273 273 274 272 272 271 270 270 269 268 268 267
254 255 255 254 253 253 253 254 254 256 255 255 255 257 258 258 258 259 259 259 260 261 262 263 263 263 264 263 264 266 268 269 268 269 271 271 269 268 268 267 267 267 266
254 254 254 253 251 252 252 252 253 251 252 253 254 255 255 257 258 259 260 260 259 259 259 260 262 261 261 261 261 262 264 268 267 267 266 268 267 265 266 266 265 265 265
253 253 252 252 252 251 251 252 252 252 252 254 254 254 255 257 258 257 258 256 255 256 256 257 257 258 259 259 260 264 265 267 266 266 265 266 264 263 264 264 264 264 264
Wind_Speed
9 11 11 11 12 13 15 14 15 12 12 13 13 13 12 12 11 10 9 7 10 11 6 7 7 7 5 4 4 3 3 3 3 1 2 2 2 2 0 1 1 2 3
4 5 7 7 6 10 13 13 8 10 9 11 10 10 10 10 11 12 12 10 11 13 10 10 8 6 6 5 4 5 4 3 3 4 2 2 3 3 2 2 2 3 3
5 6 6 5 5 6 5 3 5 6 6 5 6 8 9 10 10 11 12 11 10 9 10 9 11 10 7 6 5 6 4 3 2 3 2 1 1 1 1 1 2 3 3
4 4 5 4 4 4 3 5 5 4 6 6 6 6 7 8 10 10 9 11 10 9 10 11 11 12 12 11 8 8 6 5 4 3 2 2 1 2 1 1 2 1 3
4 4 4 2 2 2 3 2 4 3 1 2 3 4 5 7 7 10 10 10 11 9 10 8 5 6 7 10 8 7 8 5 3 3 2 1 3 2 3 2 1 1 3
4 4 3 4 3 2 1 2 4 5 5 5 6 6 7 6 9 13 12 9 8 9 8 7 6 10 10 13 13 14 11 9 7 4 3 3 4 3 3 3 2 1 3
3 2 2 3 4 4 3 3 2 3 2 4 5 6 6 5 12 15 14 9 9 8 9 7 5 3 6 6 10 13 12 14 10 7 6 6 3 5 5 3 3 2 3
2 0 0 0 2 1 1 3 2 2 4 4 5 5 5 5 13 13 9 4 5 8 8 10 10 10 9 9 7 6 5 5 6 5 5 4 3 4 6 5 5 2 2
2 1 2 3 3 3 3 3 2 2 1 1 2 2 2 1 13 14 13 6 5 4 3 8 9 9 13 17 9 9 7 5 8 9 9 9 10 11 8 4 3 3 2
3 2 2 4 4 4 4 4 2 3 2 2 3 3 3 3 10 13 10 6 7 6 7 6 9 10 17 20 10 10 9 9 8 4 5 8 9 6 10 8 5 4 3
4 4 4 3 2 1 1 2 1 2 2 1 2 1 3 5 8 15 16 6 6 6 6 6 6 17 16 21 16 10 11 8 11 6 5 5 4 4 4 3 6 6 4
4 5 6 4 3 2 4 1 2 3 3 1 2 0 1 1 3 12 15 10 7 4 6 5 5 16 17 19 17 16 15 10 5 7 6 8 7 6 5 6 8 7 6
7 6 5 5 5 3 3 2 2 2 2 3 2 1 1 1 0 10 14 13 11 6 5 8 12 16 18 15 20 16 13 7 6 7 9 8 6 6 6 5 6 6 4
6 6 5 4 3 4 3 2 2 1 1 1 2 2 3 3 4 3 5 8 14 11 6 4 7 9 12 10 7 13 8 8 9 8 7 6 5 4 5 5 5 5 3
5 4 4 3 3 3 2 1 1 2 2 2 3 2 1 1 5 10 10 8 8 9 7 4 5 5 6 7 6 8 8 8 10 9 7 7 8 7 6 5 4 3 5
6 4 3 3 3 2 2 2 6 6 8 8 10 4 3 10 9 13 17 18 16 14 6 7 8 8 9 9 9 9 9 11 9 8 7 8 9 9 9 6 5 7 7
6 5 3 4 3 3 3 3 4 6 10 8 8 12 13 10 9 10 13 15 18 16 9 8 7 7 8 9 9 9 9 8 8 8 9 9 9 8 7 8 7 7 8
4 6 4 2 2 2 2 2 2 2 1 2 7 8 9 10 10 11 12 12 7 10 9 10 9 9 8 9 8 8 7 6 8 9 9 9 8 8 7 7 9 9 9
4 3 2 4 3 3 3 3 3 3 3 3 4 6 7 11 12 11 11 5 6 7 6 7 8 9 8 8 7 7 9 9 9 8 9 9 9 8 9 8 8 11 10
5 7 6 4 5 4 4 4 4 3 2 3 3 3 5 3 3 3 3 4 5 6 5 6 7 7 8 8 8 8 8 9 9 8 8 7 7 7 8 8 8 8 9
2 3 4 3 4 2 3 3 2 3 3 3 3 4 14 6 5 4 4 3 5 6 6 7 7 8 7 7 7 6 7 7 6 6 6 6 6 7 7 7 7 7 7
4 3 3 3 2 3 3 2 3 3 2 3 3 4 12 2 2 3 3 5 5 6 7 7 7 6 7 5 3 3 3 4 3 4 5 6 7 7 6 7 7 7 7
3 3 3 2 2 3 3 2 2 2 2 3 3 3 3 3 3 3 4 4 4 4 5 4 4 4 3 2 3 3 5 5 3 4 6 6 6 6 6 7 7 7 7
3 3 2 2 2 2 2 3 3 4 4 4 4 4 4 4 4 5 4 4 4 4 4 4 4 5 4 4 3 4 4 4 2 3 7 6 6 6 6 6 6 8 7
3 3 3 3 3 2 3 3 3 3 3 3 3 3 3 3 3 4 3 3 3 3 4 4 5 6 7 8 6 7 7 10 6 5 3 7 5 6 6 5 5 5 7
1 1 0 0 1 1 1 2 3 3 3 3 3 3 3 4 4 4 4 4 3 4 5 3 5 8 9 6 7 9 9 9 7 7 3 3 2 2 3 5 7 5 6
Wind_Direction
204 213 220 220 215 213 215 215 215 205 192 199 198 189 190 187 182 185 178 174 179 170 173 168 173 158 167 162 154 146 149 128 135 182 124 166 134 157 312 339 266 272 279
261 244 229 226 216 217 226 228 204 196 196 199 191 189 188 191 186 187 181 189 196 175 185 161 183 166 170 158 156 163 150 149 132 165 169 170 153 175 199 245 274 301 311
215 217 240 247 235 236 231 178 173 161 172 168 173 188 185 187 189 194 189 184 172 198 189 184 179 167 174 172 160 156 150 149 135 123 161 110 107 118 269 322 293 285 303
235 231 236 238 235 227 210 162 164 177 170 173 185 198 193 185 187 179 196 176 188 177 195 169 188 191 176 166 177 175 160 151 151 129 143 142 163 185 109 155 328 327 298
202 203 239 270 223 191 181 160 117 153 166 161 163 173 179 187 190 191 183 186 180 184 178 167 189 166 191 186 161 178 160 156 150 154 140 150 185 167 186 190 196 286 281
194 211 201 169 155 180 180 177 165 179 185 178 192 193 190 202 194 196 176 174 180 177 191 159 171 159 174 191 177 171 176 166 170 158 157 200 176 187 173 176 155 325 306
172 193 199 180 185 187 169 167 213 218 184 209 205 199 207 210 181 183 171 171 176 179 155 153 172 162 152 182 188 175 184 188 181 168 165 193 176 185 155 180 165 190 240
100 140 109 244 299 321 209 213 212 197 225 220 213 208 201 192 179 178 167 131 179 178 178 180 183 166 183 165 176 164 173 188 187 174 180 183 173 182 173 176 176 194 310
35 295 217 193 188 192 201 218 214 184 220 185 139 162 173 164 177 173 163 143 160 177 184 186 177 185 181 183 182 178 183 198 203 201 207 211 208 187 178 138 176 172 251
357 310 230 185 181 185 191 182 165 144 161 175 132 160 156 154 191 182 165 162 176 167 163 179 186 193 189 194 189 182 192 205 183 175 201 213 214 212 224 194 167 177 192
23 48 46 39 55 30 66 35 91 92 96 109 139 143 186 169 183 189 191 188 189 177 184 195 192 204 198 202 198 192 203 165 195 183 189 206 198 193 202 198 197 192 188
55 51 46 36 43 95 122 107 106 131 133 151 132 79 24 43 193 210 206 212 205 193 209 197 192 211 205 200 209 212 211 189 185 193 192 212 202 203 204 204 211 208 214
55 45 35 31 32 39 89 114 87 115 137 154 154 167 222 2 324 219 218 211 215 211 199 206 203 204 218 218 222 222 207 203 197 204 215 215 199 201 190 196 206 200 208
65 44 27 48 33 28 32 28 47 54 68 166 171 210 192 183 186 188 203 211 217 221 210 205 212 212 217 220 213 223 211 213 214 217 215 205 175 180 188 192 195 182 197
92 84 62 56 36 26 38 102 69 282 178 233 262 231 185 269 241 221 211 212 208 201 164 163 190 200 202 213 218 219 223 214 218 218 210 197 194 194 201 182 193 170 200
75 45 64 69 14 51 69 1 11 15 342 336 328 288 275 258 267 241 238 239 232 214 197 216 209 206 208 206 215 220 219 219 219 220 215 215 208 198 201 189 188 202 212
97 90 31 45 58 46 22 43 16 344 10 360 340 327 315 286 275 267 258 245 241 234 235 229 232 220 220 217 223 224 228 224 224 220 220 217 214 210 199 199 199 199 213
86 85 99 90 81 67 68 46 74 55 7 322 330 341 332 314 301 284 280 280 255 248 242 244 240 234 226 225 220 221 223 223 218 217 215 215 214 209 204 213 210 205 203
54 36 41 100 76 62 53 42 43 28 1 319 332 347 330 325 326 297 282 266 261 253 250 256 252 249 241 234 224 219 221 228 221 215 216 213 208 205 215 214 212 211 206
32 34 48 34 35 41 40 41 14 359 351 345 338 329 327 328 330 321 299 291 274 270 255 253 256 250 240 237 234 233 235 230 225 218 218 212 210 209 216 210 207 211 208
52 38 39 49 51 50 49 26 7 19 2 345 319 322 339 355 341 336 310 304 293 282 275 267 258 253 246 244 244 247 241 238 226 209 211 207 203 209 216 223 216 213 212
39 29 27 46 31 38 22 22 15 17 357 339 313 317 349 0 333 325 326 342 333 331 338 331 331 348 347 332 307 267 246 241 229 226 219 218 215 216 213 214 213 212 209
58 52 33 20 36 18 30 12 359 343 311 302 305 319 326 325 325 325 325 317 325 329 323 318 313 315 317 315 312 298 290 277 259 249 244 233 222 218 213 215 216 214 206
65 64 59 37 20 24 19 358 345 346 343 337 335 328 326 328 325 316 310 312 318 319 318 321 319 319 319 316 303 288 273 271 256 252 241 237 225 213 214 214 209 212 209
35 30 31 19 19 7 354 354 343 324 313 298 300 300 300 307 316 318 317 315 314 319 321 324 322 313 311 314 307 300 286 290 286 255 242 253 230 200 205 211 203 206 199
70 55 94 45 340 317 311 299 285 278 281 283 287 283 282 297 299 304 317 319 321 312 316 311 310 323 323 309 305 307 303 289 270 258 237 245 218 202 209 205 202 202 201